Time,TemperatureF,DewpointF,PressureIn,WindDirection,WindDirectionDegrees,WindSpeedMPH,WindSpeedGustMPH,Humidity,HourlyPrecipIn,Conditions,Clouds,dailyrainin,SolarRadiationWatts/m^2,SoftwareType,DateUTC
2013-05-25 00:01:00,49.0,12.0,29.99,SSE,156,13.0,17.0,22,-99.99,,,-99.99,0.000000,,2013-05-25 07:01:00,
2013-05-25 00:11:00,49.0,12.0,29.99,SSE,157,13.0,20.0,23,-99.99,,,-99.99,1.000000,,2013-05-25 07:11:00,
2013-05-25 00:21:00,48.0,13.0,29.99,SSE,154,14.0,19.0,24,-99.99,,,-99.99,1.000000,,2013-05-25 07:21:00,
2013-05-25 00:31:00,47.0,12.0,29.99,SSE,149,12.0,16.0,24,-99.99,,,-99.99,0.000000,,2013-05-25 07:31:00,
2013-05-25 00:42:00,47.0,12.0,29.99,SSE,149,12.0,16.0,24,-99.99,,,-99.99,0.000000,,2013-05-25 07:42:00,
2013-05-25 00:52:00,47.0,12.0,29.99,SSE,152,14.0,18.0,24,-99.99,,,-99.99,0.000000,,2013-05-25 07:52:00,
2013-05-25 01:02:00,46.0,12.0,29.99,SSE,157,15.0,18.0,25,-99.99,,,-99.99,1.000000,,2013-05-25 08:02:00,
2013-05-25 01:11:00,46.0,13.0,29.99,SSE,157,14.0,18.0,26,-99.99,,,-99.99,0.000000,,2013-05-25 08:11:00,
2013-05-25 01:22:00,46.0,13.0,29.99,SSE,157,14.0,18.0,26,-99.99,,,-99.99,0.000000,,2013-05-25 08:22:00,
2013-05-25 01:32:00,44.0,13.0,29.98,SSE,151,13.0,16.0,28,-99.99,,,-99.99,0.000000,,2013-05-25 08:32:00,
2013-05-25 01:42:00,44.0,13.0,29.98,SSE,151,13.0,16.0,28,-99.99,,,-99.99,0.000000,,2013-05-25 08:42:00,
2013-05-25 01:51:00,47.0,13.0,29.98,SSE,154,12.0,15.0,25,-99.99,,,-99.99,1.000000,,2013-05-25 08:51:00,
2013-05-25 02:01:00,47.0,13.0,29.98,SSE,154,12.0,15.0,25,-99.99,,,-99.99,1.000000,,2013-05-25 09:01:00,
2013-05-25 02:11:00,45.0,13.0,29.98,SSE,155,11.0,15.0,26,-99.99,,,-99.99,0.000000,,2013-05-25 09:11:00,
2013-05-25 02:21:00,45.0,12.0,29.98,SSE,154,11.0,14.0,26,-99.99,,,-99.99,0.000000,,2013-05-25 09:21:00,
2013-05-25 02:33:00,46.0,12.0,29.98,SSE,159,10.0,16.0,25,-99.99,,,-99.99,0.000000,,2013-05-25 09:33:00,
2013-05-25 02:42:00,46.0,12.0,29.97,SSE,159,10.0,14.0,25,-99.99,,,-99.99,0.000000,,2013-05-25 09:42:00,
2013-05-25 02:52:00,45.0,13.0,29.97,South,179,11.0,16.0,26,-99.99,,,-99.99,0.000000,,2013-05-25 09:52:00,
2013-05-25 03:02:00,45.0,13.0,29.97,South,179,11.0,16.0,26,-99.99,,,-99.99,0.000000,,2013-05-25 10:02:00,
2013-05-25 03:12:00,45.0,13.0,29.98,South,171,9.0,13.0,27,-99.99,,,-99.99,0.000000,,2013-05-25 10:12:00,
2013-05-25 03:22:00,45.0,14.0,29.98,South,178,9.0,12.0,28,-99.99,,,-99.99,0.000000,,2013-05-25 10:22:00,
2013-05-25 03:32:00,50.0,13.0,29.98,SSE,163,11.0,17.0,23,-99.99,,,-99.99,1.000000,,2013-05-25 10:32:00,
2013-05-25 03:40:00,48.0,13.0,29.98,SSE,168,9.0,15.0,24,-99.99,,,-99.99,0.000000,,2013-05-25 10:40:00,
2013-05-25 03:42:00,50.0,13.0,29.98,SSE,163,11.0,17.0,23,-99.99,,,-99.99,1.000000,,2013-05-25 10:42:00,
2013-05-25 03:52:00,49.0,14.0,29.98,SSE,166,9.0,14.0,24,-99.99,,,-99.99,0.000000,,2013-05-25 10:52:00,
2013-05-25 04:02:00,49.0,14.0,29.98,SSE,166,9.0,14.0,24,-99.99,,,-99.99,0.000000,,2013-05-25 11:02:00,
2013-05-25 04:12:00,47.0,14.0,29.98,South,169,9.0,13.0,26,-99.99,,,-99.99,0.000000,,2013-05-25 11:12:00,
2013-05-25 04:21:00,47.0,14.0,29.98,South,169,9.0,13.0,26,-99.99,,,-99.99,0.000000,,2013-05-25 11:21:00,
2013-05-25 04:30:00,49.0,12.0,29.99,SSE,168,10.0,18.0,22,-99.99,,,-99.99,0.000000,,2013-05-25 11:30:00,
2013-05-25 04:32:00,48.0,13.0,29.98,SSE,168,9.0,15.0,24,-99.99,,,-99.99,0.000000,,2013-05-25 11:32:00,
2013-05-25 05:01:00,50.0,11.0,29.98,SSE,164,12.0,17.0,21,-99.99,,,-99.99,0.000000,,2013-05-25 12:01:00,
2013-05-25 05:12:00,49.0,12.0,29.99,SSE,168,10.0,18.0,22,-99.99,,,-99.99,0.000000,,2013-05-25 12:12:00,
2013-05-25 05:21:00,49.0,12.0,29.99,SSE,168,10.0,18.0,22,-99.99,,,-99.99,0.000000,,2013-05-25 12:21:00,
2013-05-25 05:52:00,46.0,12.0,29.99,South,175,9.0,13.0,25,-99.99,,,-99.99,2.000000,,2013-05-25 12:52:00,
2013-05-25 06:02:00,46.0,12.0,29.99,South,175,9.0,13.0,25,-99.99,,,-99.99,2.000000,,2013-05-25 13:02:00,
2013-05-25 06:11:00,45.0,13.0,29.99,SSE,166,10.0,14.0,26,-99.99,,,-99.99,7.000000,,2013-05-25 13:11:00,
2013-05-25 06:21:00,46.0,12.0,30.00,SSE,157,12.0,16.0,24,-99.99,,,-99.99,16.000000,,2013-05-25 13:21:00,
2013-05-25 06:32:00,46.0,11.0,30.00,SSE,156,12.0,15.0,24,-99.99,,,-99.99,46.000000,,2013-05-25 13:32:00,
2013-05-25 06:42:00,46.0,11.0,30.00,SSE,156,12.0,15.0,24,-99.99,,,-99.99,46.000000,,2013-05-25 13:42:00,
2013-05-25 06:52:00,46.0,12.0,30.00,SSE,165,10.0,13.0,24,-99.99,,,-99.99,108.000000,,2013-05-25 13:52:00,
2013-05-25 07:02:00,46.0,12.0,30.00,SSE,165,10.0,13.0,24,-99.99,,,-99.99,108.000000,,2013-05-25 14:02:00,
2013-05-25 07:11:00,48.0,12.0,30.00,SSE,167,8.0,13.0,23,-99.99,,,-99.99,176.000000,,2013-05-25 14:11:00,
2013-05-25 07:22:00,49.0,12.0,30.01,SSE,164,9.0,12.0,22,-99.99,,,-99.99,213.000000,,2013-05-25 14:22:00,
2013-05-25 07:32:00,49.0,12.0,30.01,SSE,164,9.0,12.0,22,-99.99,,,-99.99,213.000000,,2013-05-25 14:32:00,
2013-05-25 07:42:00,52.0,13.0,30.00,SSE,159,12.0,16.0,21,-99.99,,,-99.99,285.000000,,2013-05-25 14:42:00,
2013-05-25 07:52:00,53.0,14.0,30.01,SSE,160,9.0,14.0,21,-99.99,,,-99.99,322.000000,,2013-05-25 14:52:00,
2013-05-25 08:01:00,56.0,13.0,30.01,SE,139,10.0,16.0,18,-99.99,,,-99.99,358.000000,,2013-05-25 15:01:00,
2013-05-25 08:11:00,57.0,14.0,30.01,SSE,149,11.0,16.0,18,-99.99,,,-99.99,395.000000,,2013-05-25 15:11:00,
2013-05-25 08:22:00,58.0,15.0,30.01,SSE,156,13.0,17.0,18,-99.99,,,-99.99,432.000000,,2013-05-25 15:22:00,
2013-05-25 08:33:00,60.0,11.0,30.01,SSE,147,12.0,17.0,14,-99.99,,,-99.99,507.000000,,2013-05-25 15:33:00,
2013-05-25 08:43:00,60.0,11.0,30.01,SSE,147,12.0,17.0,14,-99.99,,,-99.99,507.000000,,2013-05-25 15:43:00,
2013-05-25 08:50:00,63.0,13.0,30.01,ESE,122,12.0,20.0,14,-99.99,,,-99.99,674.000000,,2013-05-25 15:50:00,
2013-05-25 08:53:00,60.0,11.0,30.01,SE,136,12.0,18.0,14,-99.99,,,-99.99,541.000000,,2013-05-25 15:53:00,
2013-05-25 09:03:00,60.0,11.0,30.01,SE,136,12.0,18.0,14,-99.99,,,-99.99,541.000000,,2013-05-25 16:03:00,
2013-05-25 09:12:00,61.0,12.0,30.01,SE,140,13.0,18.0,14,-99.99,,,-99.99,611.000000,,2013-05-25 16:12:00,
2013-05-25 09:23:00,62.0,12.0,30.01,SE,126,12.0,21.0,14,-99.99,,,-99.99,644.000000,,2013-05-25 16:23:00,
2013-05-25 09:32:00,63.0,13.0,30.01,ESE,122,12.0,20.0,14,-99.99,,,-99.99,674.000000,,2013-05-25 16:32:00,
2013-05-25 09:42:00,63.0,13.0,30.01,ESE,122,12.0,20.0,14,-99.99,,,-99.99,674.000000,,2013-05-25 16:42:00,
2013-05-25 10:11:00,65.0,14.0,30.01,South,186,13.0,20.0,14,-99.99,,,-99.99,794.000000,,2013-05-25 17:11:00,
2013-05-25 10:22:00,65.0,15.0,30.01,South,186,13.0,19.0,14,-99.99,,,-99.99,828.000000,,2013-05-25 17:22:00,
2013-05-25 10:32:00,65.0,13.0,30.01,South,175,12.0,19.0,13,-99.99,,,-99.99,888.000000,,2013-05-25 17:32:00,
2013-05-25 10:41:00,65.0,13.0,30.01,South,175,12.0,19.0,13,-99.99,,,-99.99,888.000000,,2013-05-25 17:41:00,
2013-05-25 10:52:00,66.0,12.0,30.00,SSE,161,10.0,24.0,12,-99.99,,,-99.99,940.000000,,2013-05-25 17:52:00,
2013-05-25 11:01:00,66.0,12.0,30.00,SSE,161,10.0,24.0,12,-99.99,,,-99.99,940.000000,,2013-05-25 18:01:00,
2013-05-25 11:11:00,67.0,11.0,30.00,South,178,12.0,20.0,11,-99.99,,,-99.99,959.000000,,2013-05-25 18:11:00,
2013-05-25 11:21:00,66.0,10.0,30.00,South,171,12.0,19.0,11,-99.99,,,-99.99,978.000000,,2013-05-25 18:21:00,
2013-05-25 11:32:00,66.0,10.0,30.00,South,171,12.0,19.0,11,-99.99,,,-99.99,978.000000,,2013-05-25 18:32:00,
2013-05-25 11:42:00,67.0,11.0,30.00,SSE,166,14.0,22.0,11,-99.99,,,-99.99,1013.000000,,2013-05-25 18:42:00,
2013-05-25 11:52:00,67.0,11.0,30.00,SSE,166,14.0,22.0,11,-99.99,,,-99.99,1013.000000,,2013-05-25 18:52:00,
2013-05-25 12:01:00,68.0,11.0,30.00,SSE,168,11.0,17.0,11,-99.99,,,-99.99,1030.000000,,2013-05-25 19:01:00,
2013-05-25 12:11:00,68.0,11.0,30.00,South,181,12.0,21.0,11,-99.99,,,-99.99,1038.000000,,2013-05-25 19:11:00,
2013-05-25 12:21:00,69.0,12.0,30.01,SW,214,15.0,22.0,11,-99.99,,,-99.99,1051.000000,,2013-05-25 19:21:00,
2013-05-25 12:30:00,69.0,12.0,29.99,SSE,166,9.0,22.0,11,-99.99,,,-99.99,1089.000000,,2013-05-25 19:30:00,
2013-05-25 12:32:00,69.0,12.0,30.00,South,190,9.0,20.0,11,-99.99,,,-99.99,1079.000000,,2013-05-25 19:32:00,
2013-05-25 12:42:00,69.0,12.0,30.00,South,190,9.0,20.0,11,-99.99,,,-99.99,1079.000000,,2013-05-25 19:42:00,
2013-05-25 12:52:00,69.0,10.0,30.00,South,179,12.0,19.0,10,-99.99,,,-99.99,1088.000000,,2013-05-25 19:52:00,
2013-05-25 13:02:00,69.0,10.0,30.00,South,179,12.0,19.0,10,-99.99,,,-99.99,1088.000000,,2013-05-25 20:02:00,
2013-05-25 13:11:00,69.0,12.0,29.99,SSE,166,9.0,22.0,11,-99.99,,,-99.99,1089.000000,,2013-05-25 20:11:00,
2013-05-25 13:21:00,69.0,12.0,29.99,SSE,166,9.0,22.0,11,-99.99,,,-99.99,1089.000000,,2013-05-25 20:21:00,
2013-05-25 13:30:00,71.0,12.0,29.98,SSE,167,11.0,19.0,10,-99.99,,,-99.99,1073.000000,,2013-05-25 20:30:00,
2013-05-25 13:52:00,71.0,12.0,29.99,SSE,164,10.0,17.0,10,-99.99,,,-99.99,1081.000000,,2013-05-25 20:52:00,
2013-05-25 14:02:00,71.0,12.0,29.99,SSE,164,10.0,17.0,10,-99.99,,,-99.99,1081.000000,,2013-05-25 21:02:00,
2013-05-25 14:11:00,70.0,11.0,29.99,SSE,162,13.0,28.0,10,-99.99,,,-99.99,1076.000000,,2013-05-25 21:11:00,
2013-05-25 14:21:00,71.0,12.0,29.98,SSE,167,11.0,19.0,10,-99.99,,,-99.99,1073.000000,,2013-05-25 21:21:00,
2013-05-25 15:03:00,72.0,13.0,29.97,South,172,14.0,24.0,10,-99.99,,,-99.99,1004.000000,,2013-05-25 22:03:00,
2013-05-25 15:12:00,72.0,12.0,29.97,SSE,162,13.0,23.0,10,-99.99,,,-99.99,997.000000,,2013-05-25 22:12:00,
2013-05-25 15:22:00,72.0,13.0,29.97,South,180,13.0,29.0,10,-99.99,,,-99.99,983.000000,,2013-05-25 22:22:00,
2013-05-25 15:32:00,72.0,13.0,29.96,SSE,151,17.0,31.0,10,-99.99,,,-99.99,972.000000,,2013-05-25 22:32:00,
2013-05-25 15:42:00,72.0,13.0,29.96,SSE,151,17.0,31.0,10,-99.99,,,-99.99,972.000000,,2013-05-25 22:42:00,
2013-05-25 15:52:00,73.0,13.0,29.96,South,179,11.0,20.0,10,-99.99,,,-99.99,922.000000,,2013-05-25 22:52:00,
2013-05-25 16:02:00,73.0,13.0,29.96,South,179,11.0,20.0,10,-99.99,,,-99.99,922.000000,,2013-05-25 23:02:00,
2013-05-25 16:12:00,74.0,14.0,29.95,SE,140,15.0,25.0,10,-99.99,,,-99.99,873.000000,,2013-05-25 23:12:00,
2013-05-25 16:21:00,74.0,14.0,29.95,SSE,159,14.0,26.0,10,-99.99,,,-99.99,830.000000,,2013-05-25 23:21:00,
2013-05-25 16:32:00,73.0,14.0,29.94,SSE,149,13.0,24.0,10,-99.99,,,-99.99,773.000000,,2013-05-25 23:32:00,
2013-05-25 16:40:00,75.0,15.0,29.94,SSW,200,19.0,28.0,10,-99.99,,,-99.99,651.000000,,2013-05-25 23:40:00,
2013-05-25 16:42:00,73.0,14.0,29.94,SSE,149,13.0,24.0,10,-99.99,,,-99.99,773.000000,,2013-05-25 23:42:00,
2013-05-25 16:52:00,74.0,14.0,29.94,SE,143,14.0,24.0,10,-99.99,,,-99.99,746.000000,,2013-05-25 23:52:00,
2013-05-25 17:01:00,74.0,14.0,29.94,SE,143,14.0,24.0,10,-99.99,,,-99.99,746.000000,,2013-05-26 00:01:00,
2013-05-25 17:11:00,75.0,15.0,29.94,SSW,204,13.0,24.0,10,-99.99,,,-99.99,683.000000,,2013-05-26 00:11:00,
2013-05-25 17:21:00,75.0,15.0,29.94,SSW,204,13.0,24.0,10,-99.99,,,-99.99,683.000000,,2013-05-26 00:21:00,
2013-05-25 17:31:00,75.0,15.0,29.94,SSW,200,19.0,28.0,10,-99.99,,,-99.99,651.000000,,2013-05-26 00:31:00,
2013-05-25 17:52:00,73.0,16.0,29.93,SSE,164,13.0,26.0,11,-99.99,,,-99.99,410.000000,,2013-05-26 00:52:00,
2013-05-25 18:01:00,74.0,14.0,29.94,South,174,14.0,22.0,10,-99.99,,,-99.99,491.000000,,2013-05-26 01:01:00,
2013-05-25 18:11:00,73.0,13.0,29.94,South,169,13.0,21.0,10,-99.99,,,-99.99,394.000000,,2013-05-26 01:11:00,
2013-05-25 18:21:00,73.0,15.0,29.93,SSE,148,14.0,23.0,11,-99.99,,,-99.99,345.000000,,2013-05-26 01:21:00,
2013-05-25 18:32:00,71.0,14.0,29.94,SSE,150,15.0,23.0,11,-99.99,,,-99.99,65.000000,,2013-05-26 01:32:00,
2013-05-25 18:42:00,71.0,14.0,29.94,SSE,150,15.0,23.0,11,-99.99,,,-99.99,65.000000,,2013-05-26 01:42:00,
2013-05-25 18:52:00,71.0,14.0,29.94,SSE,149,17.0,25.0,11,-99.99,,,-99.99,61.000000,,2013-05-26 01:52:00,
2013-05-25 19:02:00,71.0,14.0,29.94,SSE,149,17.0,25.0,11,-99.99,,,-99.99,61.000000,,2013-05-26 02:02:00,
2013-05-25 19:11:00,70.0,13.0,29.94,SSE,157,14.0,24.0,11,-99.99,,,-99.99,69.000000,,2013-05-26 02:11:00,
2013-05-25 19:21:00,71.0,14.0,29.94,SSE,156,12.0,18.0,11,-99.99,,,-99.99,77.000000,,2013-05-26 02:21:00,
2013-05-25 19:32:00,71.0,12.0,29.94,SSE,154,17.0,26.0,10,-99.99,,,-99.99,78.000000,,2013-05-26 02:32:00,
2013-05-25 19:41:00,71.0,12.0,29.94,SSE,154,17.0,26.0,10,-99.99,,,-99.99,78.000000,,2013-05-26 02:41:00,
2013-05-25 19:52:00,70.0,11.0,29.94,SSE,156,15.0,21.0,10,-99.99,,,-99.99,63.000000,,2013-05-26 02:52:00,
2013-05-25 20:01:00,70.0,11.0,29.94,SSE,156,15.0,21.0,10,-99.99,,,-99.99,63.000000,,2013-05-26 03:01:00,
2013-05-25 20:11:00,69.0,10.0,29.94,SSE,152,17.0,26.0,10,-99.99,,,-99.99,29.000000,,2013-05-26 03:11:00,
2013-05-25 20:21:00,68.0,9.0,29.95,SSE,157,14.0,19.0,10,-99.99,,,-99.99,20.000000,,2013-05-26 03:21:00,
2013-05-25 20:33:00,68.0,9.0,29.95,SSE,157,14.0,19.0,10,-99.99,,,-99.99,20.000000,,2013-05-26 03:33:00,
2013-05-25 20:42:00,65.0,9.0,29.95,SSE,154,11.0,16.0,11,-99.99,,,-99.99,7.000000,,2013-05-26 03:42:00,
2013-05-25 20:53:00,65.0,9.0,29.95,SSE,153,12.0,17.0,11,-99.99,,,-99.99,4.000000,,2013-05-26 03:53:00,
2013-05-25 21:02:00,63.0,9.0,29.95,SSE,150,9.0,14.0,12,-99.99,,,-99.99,1.000000,,2013-05-26 04:02:00,
2013-05-25 21:12:00,60.0,9.0,29.96,SSE,148,10.0,23.0,13,-99.99,,,-99.99,0.000000,,2013-05-26 04:12:00,
2013-05-25 21:23:00,60.0,9.0,29.96,SE,146,10.0,13.0,13,-99.99,,,-99.99,0.000000,,2013-05-26 04:23:00,
2013-05-25 21:33:00,64.0,8.0,29.96,SSE,152,15.0,22.0,11,-99.99,,,-99.99,0.000000,,2013-05-26 04:33:00,
2013-05-25 21:42:00,64.0,8.0,29.96,SSE,152,15.0,22.0,11,-99.99,,,-99.99,0.000000,,2013-05-26 04:42:00,
2013-05-25 21:52:00,62.0,9.0,29.97,SE,140,12.0,21.0,12,-99.99,,,-99.99,0.000000,,2013-05-26 04:52:00,
2013-05-25 22:02:00,62.0,9.0,29.97,SE,140,12.0,21.0,12,-99.99,,,-99.99,0.000000,,2013-05-26 05:02:00,
2013-05-25 22:12:00,60.0,7.0,29.97,SE,141,12.0,16.0,12,-99.99,,,-99.99,0.000000,,2013-05-26 05:12:00,
2013-05-25 22:22:00,59.0,9.0,29.97,SE,146,12.0,16.0,13,-99.99,,,-99.99,0.000000,,2013-05-26 05:22:00,
2013-05-25 22:32:00,59.0,7.0,29.98,SE,139,11.0,15.0,12,-99.99,,,-99.99,0.000000,,2013-05-26 05:32:00,
2013-05-25 22:42:00,59.0,7.0,29.98,SE,139,11.0,15.0,12,-99.99,,,-99.99,0.000000,,2013-05-26 05:42:00,
2013-05-25 22:52:00,61.0,8.0,29.98,SE,126,10.0,17.0,12,-99.99,,,-99.99,0.000000,,2013-05-26 05:52:00,
2013-05-25 23:01:00,61.0,8.0,29.98,SE,126,10.0,17.0,12,-99.99,,,-99.99,0.000000,,2013-05-26 06:01:00,
2013-05-25 23:11:00,61.0,6.0,29.98,ESE,118,10.0,16.0,11,-99.99,,,-99.99,0.000000,,2013-05-26 06:11:00,
2013-05-25 23:21:00,61.0,6.0,29.98,ESE,118,10.0,16.0,11,-99.99,,,-99.99,0.000000,,2013-05-26 06:21:00,
2013-05-25 23:32:00,61.0,7.0,29.98,East,99,11.0,18.0,11,-99.99,,,-99.99,0.000000,,2013-05-26 06:32:00,
2013-05-25 23:42:00,61.0,7.0,29.98,East,99,11.0,18.0,11,-99.99,,,-99.99,0.000000,,2013-05-26 06:42:00,
2013-05-25 23:52:00,61.0,6.0,29.99,East,97,10.0,17.0,11,-99.99,,,-99.99,0.000000,,2013-05-26 06:52:00,